Location: Mary A Oil Field
(38.5606°N, 98.9545°W)
Time: 21:29:10
(UTC+00:00)

ERBS - Pass Details

Date: 20 January 2020
Orbit: 412 x 428 km, 57.0° (Epoch: 18 February)

Event Time Altitude Azimuth Distance (km) Brightness Sun altitude
Rises 00:41:33 0° 212° (SSW) 2,343 6.9 -11.5°
Reaches altitude 10° 00:43:38 10° 209° (SSW) 1,482 5.7 -11.9°
Maximum altitude 00:46:53 57° 130° (SE) 492 2.4 -12.5°
Enters shadow 00:48:47 22° 57° (ENE) 954 3.5 -12.9°
